8,
Avoca, PA
on Sunday, November 4, 2012

Sunday
Previous Day Next Day
Daily Summary
 ActualAverageRecord
Temperature
Mean Temperature °F 45°F  
Max Temperature 40°F 54°F 78°F (1994)
Min Temperature 34°F 36°F 22°F (1998)
Degree Days
Heating Degree Days 28 20  
Month to date heating degree days 96 78  
Since 1 July heating degree days 554 681  
Cooling Degree Days 0 0  
Month to date cooling degree days 0 0  
Year to date cooling degree days 864 580  
Moisture
Dew Point 27°F   
Average Humidity 71    
Maximum Humidity 82    
Minimum Humidity 59    
Precipitation
Precipitation T in 0.10 in 2.51 in (1910)
Month to date precipitation 0.04 0.42  
Year to date precipitation 33.12 32.86  
Wind
Wind Speed 9 mph   
Max Wind Speed 16 mph   
Max Gust Speed 20 mph   
Visibility 10 miles   
Events     

Key: T is trace of precipitation, MM is missing value
Source: NWS Daily Summary
Time(EST)TemperatureDew PointHumidity Pressure Visibility Wind DirectionWind SpeedGust SpeedPrecipitationEvents Conditions
12:45 AM 37.4°F 26.6°F 65% 30.01 in 10.0 miles Variable 3.5 mph - N/A   Overcast
12:54 AM 37.0°F 27.0°F 67% 30.02 in 10.0 miles NW 4.6 mph - N/A   Overcast
1:54 AM 37.0°F 27.0°F 67% 30.01 in 10.0 miles NNW 8.1 mph - N/A   Overcast
1:05 AM 37.4°F 26.6°F 65% 29.99 in 10.0 miles NNW 6.9 mph - N/A   Overcast
1:15 AM 37.4°F 28.4°F 70% 29.99 in 10.0 miles NNW 8.1 mph - N/A   Overcast
1:24 AM 37.4°F 26.6°F 65% 29.99 in 10.0 miles NNW 11.5 mph - N/A   Overcast
1:54 AM 36.0°F 27.0°F 70% 30.01 in 10.0 miles NW 8.1 mph - N/A   Overcast
2:11 AM 37.4°F 26.6°F 65% 29.99 in 10.0 miles WNW 5.8 mph - N/A   Overcast
2:54 AM 37.0°F 27.0°F 67% 30.01 in 10.0 miles Calm Calm - N/A   Overcast
3:54 AM 36.0°F 28.0°F 73% 30.01 in 10.0 miles North 3.5 mph - N/A   Overcast
4:54 AM 36.0°F 27.0°F 70% 30.02 in 10.0 miles WNW 9.2 mph 17.3 mph N/A   Overcast
5:54 AM 36.0°F 28.0°F 73% 30.01 in 10.0 miles NNW 9.2 mph - N/A   Overcast
6:54 AM 36.0°F 28.0°F 73% 30.03 in 10.0 miles NW 6.9 mph - N/A   Overcast
7:54 AM 36.0°F 28.0°F 73% 30.04 in 10.0 miles NNW 11.5 mph - N/A   Overcast
8:54 AM 37.0°F 28.0°F 70% 30.04 in 10.0 miles NNW 11.5 mph - N/A   Overcast
9:54 AM 37.0°F 28.0°F 70% 30.03 in 10.0 miles North 12.7 mph - N/A   Overcast
10:54 AM 39.0°F 28.9°F 67% 30.03 in 10.0 miles NNW 10.4 mph - N/A   Overcast
11:54 AM 37.9°F 28.9°F 70% 30.02 in 10.0 miles NW 9.2 mph - N/A   Overcast
12:54 PM 39.0°F 28.0°F 65% 30.01 in 10.0 miles NNW 10.4 mph - N/A   Overcast
1:14 PM 37.4°F 28.4°F 70% 29.99 in 10.0 miles NW 11.5 mph - N/A   Overcast
1:31 PM 39.2°F 28.4°F 65% 29.99 in 9.0 miles NW 11.5 mph - 0.00 in   Overcast
1:46 PM 39.2°F 26.6°F 61% 29.99 in 10.0 miles NNW 8.1 mph - 0.00 in   Overcast
1:54 PM 39.0°F 28.0°F 65% 30.01 in 10.0 miles NW 11.5 mph - 0.00 in   Overcast
2:54 PM 39.0°F 28.0°F 65% 30.01 in 10.0 miles NNW 8.1 mph - N/A   Overcast
3:23 PM 39.2°F 26.6°F 61% 29.99 in 10.0 miles NW 10.4 mph - N/A   Overcast
3:54 PM 39.0°F 26.1°F 60% 30.01 in 10.0 miles North 8.1 mph 18.4 mph N/A   Overcast
4:54 PM 37.9°F 27.0°F 65% 30.01 in 10.0 miles NNW 9.2 mph - N/A   Overcast
5:54 PM 37.9°F 27.0°F 65% 30.02 in 10.0 miles North 9.2 mph - N/A   Overcast
6:54 PM 37.0°F 26.1°F 65% 30.03 in 10.0 miles North 11.5 mph - N/A   Overcast
7:54 PM 37.0°F 26.1°F 65% 30.03 in 10.0 miles North 11.5 mph - N/A   Overcast
8:54 PM 36.0°F 26.1°F 67% 30.04 in 10.0 miles North 5.8 mph 16.1 mph N/A   Overcast
9:54 PM 34.0°F 28.9°F 82% 30.04 in 9.0 miles North 5.8 mph - 0.00 in   Overcast
10:30 PM 35.6°F 28.4°F 75% 30.02 in 10.0 miles NNE 6.9 mph - N/A   Overcast
10:54 PM 34.0°F 28.0°F 79% 30.04 in 9.0 miles North 8.1 mph - 0.00 in   Overcast
Astronomy
Sunrise:06:38 AM (EST) Moon Rise:09:29 PM (EST)11/4
Sunset:04:53 PM (EST) Moon Set:11:21 AM (EST)11/4
Moon Phase
Nov. 04 Nov. 06 Nov. 13 Nov. 20 Nov. 28

Copyright © 2014 The Weather Underground, Inc.
8,